Davenport, IA

8:52 PM CDT on March 22, 2017 (GMT -0500)
Davenport Municipal

Weather History for KDVN - June, 2012

Change the Weather History Date:

Thursday, June 14, 2012

  Actual Average Record
Temperature  
Mean Temperature 71 °F 70 °F  
Max Temperature 86 °F 81 °F 91 °F (2007)
Min Temperature 56 °F 60 °F 46 °F (1978)
Degree Days  
Heating Degree Days 0 1  
Month to date heating degree days 17 19  
Since 1 June heating degree days 17 19  
Since 1 July heating degree days 5256 6506  
Cooling Degree Days 6 6  
Month to date cooling degree days 52 66  
Year to date cooling degree days 206 127  
Since 1 June cooling degree days 52 66  
Growing Degree Days 20 (Base 50)    
Moisture  
Dew Point 52 °F    
Average Humidity 53    
Maximum Humidity 72    
Minimum Humidity 34    
Precipitation  
Precipitation 0.00 in 0.13 in 1.85 in (1949)
Month to date precipitation 0.18 2.52  
Year to date precipitation 13.83 15.33  
Snow  
Snow 0.00 in - - ()
Month to date snowfall 0.0  
Since 1 June snowfall 0.0  
Since 1 July snowfall 21.2  
Snow Depth 0.00 in    
Sea Level Pressure  
Sea Level Pressure 30.02 in    
Wind  
Wind Speed 12 mph (SSE)    
Max Wind Speed 12 mph    
Max Gust Speed 16 mph    
Visibility 10 miles    
Events      
T = Trace of Precipitation, MM = Missing Value Source: NWS Daily Summary

Daily Weather History Graph

Daily Weather History Graph

Search for Another Location

Airport or City:

Trip Planner

Search our weather history database for the weather conditions in past years. The results will help you decide how hot, cold, wet, or windy it might be!

Date:

Astronomy

Jun. 14, 2012 Rise Set
Actual Time 5:27 AM CDT 8:38 PM CDT
Civil Twilight 4:53 AM CDT 9:12 PM CDT
Nautical Twilight 4:09 AM CDT 9:56 PM CDT
Astronomical Twilight 3:17 AM CDT 10:48 PM CDT
Moon 2:12 AM CDT (6/14) 4:19 PM CDT (6/14)
Length of Visible Light 16h 18m
Length of Day
15h 10m
Waning Crescent, 21% of the Moon is Illuminated
Jun 14
Waning Crescent
Jun 19
New
Jun 26
First Quarter
Jul 3
Full
Jul 10
Last Quarter

Hourly Weather History & Observations

Time (CDT) Temp. Heat Index Dew Point Humidity Pressure Visibility Wind Dir Wind Speed Gust Speed Precip Events Conditions
12:52 AM 59.0 °F - 45.0 °F 60% 30.07 in 10.0 mi SE 5.8 mph - N/A   Clear
1:52 AM 55.9 °F - 46.0 °F 69% 30.07 in 10.0 mi East 6.9 mph - N/A   Clear
2:52 AM 57.0 °F - 46.0 °F 67% 30.05 in 10.0 mi SE 5.8 mph - N/A   Clear
3:52 AM 57.0 °F - 46.9 °F 69% 30.06 in 10.0 mi ESE 8.1 mph - N/A   Clear
4:52 AM 55.9 °F - 46.9 °F 72% 30.07 in 10.0 mi SE 8.1 mph - N/A   Clear
5:52 AM 57.0 °F - 46.9 °F 69% 30.06 in 10.0 mi SE 8.1 mph - N/A   Clear
6:28 AM 57.2 °F - 48.2 °F 72% 30.08 in 10.0 mi SE 9.2 mph - N/A   Partly Cloudy
6:52 AM 60.1 °F - 46.9 °F 62% 30.06 in 10.0 mi SE 10.4 mph - N/A   Clear
7:52 AM 64.0 °F - 48.0 °F 56% 30.06 in 10.0 mi SSE 10.4 mph - N/A   Clear
8:52 AM 70.0 °F - 51.1 °F 51% 30.06 in 10.0 mi SSE 11.5 mph - N/A   Clear
9:52 AM 73.9 °F - 53.1 °F 48% 30.05 in 10.0 mi SSE 13.8 mph - N/A   Clear
10:52 AM 78.1 °F - 54.0 °F 43% 30.03 in 10.0 mi South 17.3 mph 24.2 mph N/A   Clear
11:52 AM 81.0 °F 80.7 °F 55.0 °F 41% 30.02 in 10.0 mi South 16.1 mph - N/A   Clear
12:52 PM 82.0 °F 81.4 °F 55.0 °F 39% 30.01 in 10.0 mi South 16.1 mph 24.2 mph N/A   Clear
1:52 PM 84.0 °F 82.6 °F 54.0 °F 35% 30.01 in 10.0 mi South 16.1 mph 24.2 mph N/A   Clear
2:52 PM 84.9 °F 83.2 °F 53.1 °F 33% 30.00 in 10.0 mi South 16.1 mph 24.2 mph N/A   Clear
3:52 PM 84.9 °F 83.3 °F 54.0 °F 34% 30.00 in 10.0 mi SSE 11.5 mph 20.7 mph N/A   Clear
4:52 PM 84.9 °F 83.3 °F 54.0 °F 34% 29.99 in 10.0 mi South 12.7 mph 19.6 mph N/A   Clear
5:52 PM 84.9 °F 83.2 °F 53.1 °F 33% 29.97 in 10.0 mi SSE 13.8 mph 23.0 mph N/A   Clear
6:52 PM 82.9 °F 81.8 °F 53.1 °F 36% 29.94 in 10.0 mi South 17.3 mph 24.2 mph N/A   Clear
7:52 PM 81.0 °F 80.4 °F 53.1 °F 38% 29.91 in 10.0 mi SSE 12.7 mph - N/A   Clear
8:52 PM 77.0 °F - 55.0 °F 47% 29.92 in 10.0 mi SSE 10.4 mph - N/A   Clear
9:52 PM 73.0 °F - 55.9 °F 55% 29.96 in 10.0 mi SE 9.2 mph - N/A   Clear
10:52 PM 71.1 °F - 57.0 °F 61% 29.98 in 10.0 mi SE 10.4 mph - N/A   Clear
11:52 PM 72.0 °F - 57.9 °F 61% 29.96 in 10.0 mi SSE 9.2 mph - N/A   Clear